Weather History for Andalusia, AL

Change the Weather History Date:

Monday, May 6, 2013

  Actual Average (KCEW) Record (KCEW)
Temperature  
Mean Temperature 57 °F -  
Max Temperature 66 °F 82 °F 94 °F (1952)
Min Temperature 48 °F 55 °F 42 °F (2011)
Degree Days  
Heating Degree Days 8    
Growing Degree Days 7 (Base 50)    
Moisture  
Dew Point 47 °F    
Average Humidity 69    
Maximum Humidity 87    
Minimum Humidity 43    
Precipitation  
Precipitation 0.01 in - - ()
Sea Level Pressure  
Sea Level Pressure 29.95 in    
Wind  
Wind Speed 6 mph (WNW)    
Max Wind Speed 12 mph    
Max Gust Speed 20 mph    
Visibility 10 miles    
Events Rain    
Averages and records for this station are not official NWS values.
T = Trace of Precipitation, MM = Missing Value Source: NWS Daily Summary

Daily Weather History Graph

Daily Weather History Graph

Search for Another Location

Airport:

Trip Planner

Search our weather history database for the weather conditions in past years. The results will help you decide how hot, cold, wet, or windy it might be!

Date:

Astronomy

May. 06, 2013 Rise Set
Actual Time 5:56 AM CDT 7:28 PM CDT
Civil Twilight 5:30 AM CDT 7:54 PM CDT
Nautical Twilight 4:58 AM CDT 8:26 PM CDT
Astronomical Twilight 4:26 AM CDT 8:58 PM CDT
Moon 3:45 AM CDT (5/6) 4:38 PM CDT (5/6)
Length of Visible Light 14h 24m
Length of Day
13h 32m
Waning Crescent, 11% of the Moon is Illuminated
May 6
Waning Crescent
May 9
New
May 17
First Quarter
May 24
Full
May 31
Last Quarter

Hourly Weather History & Observations

Time (CDT) Temp. Dew Point Humidity Pressure Visibility Wind Dir Wind Speed Gust Speed Precip Events Conditions
12:56 AM 51.1 °F 42.1 °F 71% 29.96 in 10.0 mi WNW 5.8 mph - N/A   Clear
1:56 AM 50.0 °F 42.1 °F 74% 29.93 in 10.0 mi NW 5.8 mph - N/A   Clear
2:56 AM 50.0 °F 42.1 °F 74% 29.93 in 10.0 mi NW 9.2 mph - N/A   Clear
3:56 AM 50.0 °F 42.1 °F 74% 29.93 in 10.0 mi WNW 6.9 mph - N/A   Clear
4:56 AM 50.0 °F 42.1 °F 74% 29.94 in 10.0 mi WNW 5.8 mph - N/A   Clear
5:56 AM 48.0 °F 42.1 °F 80% 29.95 in 10.0 mi West 3.5 mph - N/A   Clear
6:56 AM 48.9 °F 42.1 °F 77% 29.97 in 10.0 mi West 3.5 mph - N/A   Clear
7:56 AM 55.9 °F 43.0 °F 62% 29.97 in 10.0 mi West 6.9 mph - N/A   Clear
8:56 AM 59.0 °F 43.0 °F 55% 29.98 in 10.0 mi WNW 8.1 mph 16.1 mph N/A   Overcast
9:56 AM 63.0 °F 43.0 °F 48% 29.99 in 10.0 mi WNW 11.5 mph - N/A   Partly Cloudy
10:56 AM 66.0 °F 43.0 °F 43% 29.98 in 10.0 mi WNW 10.4 mph 19.6 mph N/A   Overcast
11:56 AM - - N/A% 29.98 in - WNW 6.9 mph 16.1 mph N/A   Overcast
12:56 PM - - N/A% 29.96 in - West 10.4 mph 18.4 mph N/A   Overcast
1:56 PM 66.9 °F 46.0 °F 47% 29.95 in 10.0 mi West 6.9 mph - N/A   Overcast
2:56 PM 66.0 °F 45.0 °F 47% 29.93 in 10.0 mi WNW 10.4 mph - N/A   Overcast
3:56 PM 63.0 °F 48.0 °F 58% 29.92 in 10.0 mi West 9.2 mph - 0.00 in Rain Light Rain
4:56 PM 61.0 °F 51.1 °F 70% 29.92 in 7.0 mi NNW 6.9 mph - 0.00 in Rain Light Rain
5:56 PM 61.0 °F 51.1 °F 70% 29.92 in 10.0 mi NNW 3.5 mph - 0.00 in   Overcast
6:56 PM 60.1 °F 52.0 °F 75% 29.93 in 10.0 mi WNW 3.5 mph - 0.00 in   Overcast
7:56 PM 59.0 °F 54.0 °F 83% 29.94 in 10.0 mi Calm Calm - 0.01 in   Overcast
8:56 PM 59.0 °F 53.1 °F 81% 29.95 in 10.0 mi West 3.5 mph - 0.00 in   Overcast
9:56 PM 57.9 °F 53.1 °F 84% 29.95 in 9.0 mi Calm Calm - 0.00 in   Mostly Cloudy
10:56 PM 57.0 °F 53.1 °F 87% 29.95 in 8.0 mi Calm Calm - N/A   Partly Cloudy
11:56 PM 57.0 °F 53.1 °F 87% 29.95 in 10.0 mi West 5.8 mph - N/A   Scattered Clouds